Regional Weather Roundup
Issued by NWS

Home | Current Version | Previous Version | Text Only | Print | Product List | Glossary Off
Versions: 1 2 3 4 5 6 7 8 9 10 11 12 13 14 15 16 17 18 19 20 21 22 23 24 25 26 27 28 29 30 31 32 33 34 35 36 37 38 39 40 41 42 43 44 45 46 47 48 49 50

310
ASUS43 KOAX 232102
RWRNE

WEATHER ROUNDUP FOR NEBRASKA
NATIONAL WEATHER SERVICE OMAHA NE
400 PM CDT SAT SEP 23 2017

NOTES: SATELLITE DATA IS BEING USED TO AUGMENT CLOUD COVER ABOVE
       12000 FEET.
       "FAIR" INDICATES FEW OR NO CLOUDS BELOW 12,000 FEET WITH NO
       SIGNIFICANT WEATHER AND/OR OBSTRUCTIONS TO VISIBILITY.


NEZ001>004-019>022-054>056-232200-
NEBRASKA PANHANDLE

CITY           SKY/WX    TMP DP  RH WIND       PRES   REMARKS
SCOTTSBLUFF    CLOUDY    47  43  86 NW8       29.97F
ALLIANCE       LGT RAIN  46  44  93 N8        29.98F
CHADRON        CLOUDY    46  43  89 NE10      30.01F
GORDON         LGT RAIN  46  45  94 NW10G18   30.00F
KIMBALL        CLOUDY    47  44  88 N8        29.97R
SIDNEY         LGT RAIN  48  48 100 NW5       29.97R
$$

NEZ057>060-069>072-079>082-232200-
SOUTHWEST NEBRASKA

CITY           SKY/WX    TMP DP  RH WIND       PRES   REMARKS
NORTH PLATTE   PTSUNNY   58  52  80 N8        29.92F
IMPERIAL       CLOUDY    60  51  72 N9        29.91F
LEXINGTON      CLOUDY    68  61  77 NW20G26   29.85R
MCCOOK         TSTM      59  58  96 N12       29.88F FOG
OGALLALA       PTSUNNY   57  51  81 N7        29.93S
$$

NEZ005>010-023>029-035>040-094-232200-
NORTH CENTRAL NEBRASKA

CITY           SKY/WX    TMP DP  RH WIND       PRES   REMARKS
VALENTINE      TSTM      50  49  96 NW10      30.02R FOG
AINSWORTH      CLOUDY    51  51 100 W23G29    30.03R
BROKEN BOW     CLOUDY    62  55  77 N14       29.87F
O`NEILL        CLOUDY    57  57 100 N7        29.92F FOG
ORD            CLOUDY    70  57  63 N14       29.84F
THEDFORD       CLOUDY    52  51  96 N8        29.98F
$$

NEZ041-046>049-061>064-073>077-083>087-232200-
SOUTH CENTRAL NEBRASKA

CITY           SKY/WX    TMP DP  RH WIND       PRES   REMARKS
GRAND ISLAND   PTSUNNY   87  68  52 S15G23    29.83F HX  90
AURORA         MOSUNNY   88  62  40 S20G30    29.84F
HASTINGS       PTSUNNY   84  64  50 SE6       29.84F
HEBRON         MOSUNNY   90  62  39 S17G26    29.86F HX  91
HOLDREGE       CLOUDY    83  61  47 SE15      29.81F
KEARNEY        CLOUDY    85  65  51 SE20      29.82F
YORK           MOSUNNY   90  63  40 SE18G24   29.85F HX  90
$$

NEZ011>018-030>034-042>045-232200-
NORTHEAST NEBRASKA

CITY           SKY/WX    TMP DP  RH WIND       PRES   REMARKS
NORFOLK        CLOUDY    87  68  52 S16G25    29.83F HX  90
ALBION         CLOUDY    85  67  54 S16       29.85F
BLAIR          PTSUNNY   91  66  44 SE20      29.89F HX  93
COLUMBUS       MOSUNNY   89  64  43 SE14G24   29.84F HX  90
FREMONT        MOSUNNY   91  63  39 SE20      29.87F HX  91
TEKAMAH        PTSUNNY   91  65  41 SE18G26   29.87F HX  93
WAYNE          CLOUDY    84  68  59 S17       29.86F
$$

NEZ050>053-065>068-078-088>093-232200-
SOUTHEAST NEBRASKA

CITY           SKY/WX    TMP DP  RH WIND       PRES   REMARKS
LINCOLN        MOSUNNY   92  63  38 S18G26    29.86F HX  93
OMAHA EPPLEY   PTSUNNY   92  66  42 SE21G29   29.88F HX  94
BEATRICE       MOSUNNY   91  65  41 S16G28    29.88F HX  92
FALLS CITY     SUNNY     90  63  40 S14G25    29.92F HX  91
NEBRASKA CITY  MOSUNNY   90  63  41 S20G28    29.91F HX  90
PLATTSMOUTH    MOSUNNY   91  64  41 S18G25    29.90F HX  92
$$

NEZ044-045-051>053-067-232200-
OMAHA AREA

CITY           SKY/WX    TMP DP  RH WIND       PRES   REMARKS
OMAHA EPPLEY   PTSUNNY   92  66  42 SE21G29   29.88F HX  94
BLAIR          PTSUNNY   91  66  44 SE20      29.89F HX  93
FREMONT        MOSUNNY   91  63  39 SE20      29.87F HX  91
MILLARD        MOSUNNY   92  66  42 SE13G22   29.88F HX  95
OFFUTT AFB     MOSUNNY   91  64  40 SE16      29.88F HX  92
PLATTSMOUTH    MOSUNNY   91  64  41 S18G25    29.90F HX  92
WAHOO          FAIR      91  61  35 S17G28    29.86F HX  91
$$




USA.gov is the U.S. government's official web portal to all federal, state and local government web resources and services.